| time (UTC) | temp F | wind direction | speed MPH | gust MPH | rain 1hr in | rain 24hr in | rain mn in | humidity % | barometer mb |
| 20260503194635 | 76 | 334 | 2.0 | 5.0 | 0.00 | 0.02 | 0.00 | 49 | 1011.7 |
| 20260503193600 | 75 | 0 | 1.0 | 5.0 | 0.00 | 0.02 | 0.00 | 49 | 1011.8 |
| 20260503193101 | 75 | 349 | 1.0 | 5.0 | 0.00 | 0.02 | 0.00 | 51 | 1011.8 |
| 20260503192601 | 75 | 331 | 1.0 | 4.0 | 0.00 | 0.02 | 0.00 | 49 | 1011.9 |
| 20260503192101 | 74 | 253 | 1.0 | 4.0 | 0.00 | 0.02 | 0.00 | 51 | 1012.0 |
| 20260503191600 | 73 | 0 | 1.0 | 3.0 | 0.00 | 0.02 | 0.00 | 51 | 1012.1 |
| 20260503191059 | 73 | 0 | 0.0 | 4.0 | 0.00 | 0.02 | 0.00 | 52 | 1012.1 |
| 20260503190559 | 72 | 0 | 1.0 | 4.0 | 0.00 | 0.02 | 0.00 | 52 | 1012.2 |
| 20260503190059 | 72 | 349 | 1.0 | 4.0 | 0.00 | 0.02 | 0.00 | 54 | 1012.3 |
| 20260503185600 | 72 | 307 | 1.0 | 4.0 | 0.00 | 0.02 | 0.00 | 55 | 1012.3 |
| 20260503185100 | 72 | 0 | 1.0 | 5.0 | 0.00 | 0.02 | 0.00 | 56 | 1012.3 |
| 20260503184600 | 71 | 297 | 1.0 | 5.0 | 0.00 | 0.02 | 0.00 | 57 | 1012.4 |
| 20260503184101 | 71 | 0 | 0.0 | 3.0 | 0.00 | 0.02 | 0.00 | 58 | 1012.4 |
| 20260503183850 | 71 | 0 | 0.0 | 3.0 | 0.00 | 0.02 | 0.00 | 59 | 1012.5 |
| 20260503183059 | 70 | 346 | 1.0 | 4.0 | 0.00 | 0.02 | 0.00 | 61 | 1012.5 |
| 20260503182558 | 70 | 296 | 1.0 | 4.0 | 0.00 | 0.02 | 0.00 | 62 | 1012.5 |
| 20260503182057 | 69 | 306 | 2.0 | 4.0 | 0.00 | 0.02 | 0.00 | 62 | 1012.5 |
| 20260503181559 | 69 | 304 | 1.0 | 4.0 | 0.00 | 0.02 | 0.00 | 62 | 1012.6 |
| 20260503181058 | 69 | 308 | 0.0 | 3.0 | 0.00 | 0.02 | 0.00 | 63 | 1012.6 |
| 20260503180557 | 68 | 0 | 0.0 | 2.0 | 0.00 | 0.02 | 0.00 | 63 | 1012.7 |
| 20260503180108 | 68 | 0 | 0.0 | 2.0 | 0.00 | 0.02 | 0.00 | 63 | 1012.7 |
| 20260503175557 | 68 | 0 | 0.0 | 2.0 | 0.00 | 0.02 | 0.00 | 64 | 1012.7 |
| 20260503175057 | 67 | 0 | 0.0 | 3.0 | 0.00 | 0.02 | 0.00 | 64 | 1012.7 |
| 20260503174850 | 67 | 0 | 0.0 | 3.0 | 0.00 | 0.02 | 0.00 | 64 | 1012.8 |
| 20260503174058 | 66 | 0 | 0.0 | 2.0 | 0.00 | 0.02 | 0.00 | 64 | 1012.8 |
| 20260503173558 | 66 | 0 | 0.0 | 0.0 | 0.00 | 0.02 | 0.00 | 67 | 1012.9 |
| 20260503173058 | 65 | 0 | 0.0 | 0.0 | 0.00 | 0.02 | 0.00 | 68 | 1012.9 |
| 20260503172848 | 65 | 0 | 0.0 | 1.0 | 0.00 | 0.02 | 0.00 | 68 | 1013.0 |
| 20260503172056 | 65 | 0 | 0.0 | 1.0 | 0.00 | 0.02 | 0.00 | 66 | 1013.0 |
| 20260503171556 | 65 | 0 | 0.0 | 3.0 | 0.00 | 0.02 | 0.00 | 68 | 1013.0 |
| 20260503171057 | 64 | 0 | 0.0 | 3.0 | 0.00 | 0.02 | 0.00 | 68 | 1013.0 |
| 20260503170556 | 64 | 0 | 0.0 | 1.0 | 0.00 | 0.02 | 0.00 | 69 | 1013.2 |
| 20260503170359 | 63 | 0 | 0.0 | 0.0 | 0.00 | 0.02 | 0.00 | 68 | 1013.2 |
| 20260503160103 | 60 | 0 | 0.0 | 2.0 | 0.00 | 0.02 | 0.00 | 75 | 1013.4 |
| 20260503131043 | 50 | 0 | 0.0 | 0.0 | 0.00 | 0.02 | 0.00 | 96 | 1013.2 |
| 20260503130542 | 50 | 0 | 0.0 | 0.0 | 0.00 | 0.02 | 0.00 | 95 | 1013.2 |
| 20260503110539 | 51 | 0 | 0.0 | 0.0 | 0.00 | 0.02 | 0.00 | 94 | 1013.4 |
| 20260503081032 | 54 | 0 | 0.0 | 0.0 | 0.00 | 0.02 | 0.00 | 90 | 1013.6 |
| 20260503080605 | 54 | 0 | 0.0 | 0.0 | 0.00 | 0.02 | 0.00 | 90 | 1013.6 |
| 20260503072529 | 55 | 0 | 0.0 | 0.0 | 0.00 | 0.02 | 0.00 | 87 | 1013.6 |
| 20260503072322 | 56 | 0 | 0.0 | 0.0 | 0.00 | 0.02 | 0.00 | 87 | 1013.6 |
| 20260503071532 | 56 | 0 | 0.0 | 0.0 | 0.00 | 0.02 | 0.00 | 86 | 1013.6 |
| 20260503071029 | 56 | 0 | 0.0 | 0.0 | 0.00 | 0.02 | 0.00 | 86 | 1013.6 |
| 20260503070823 | 56 | 0 | 0.0 | 0.0 | 0.00 | 0.02 | 0.00 | 86 | 1013.6 |
| 20260503060321 | 58 | 0 | 0.0 | 0.0 | 0.00 | 0.02 | 0.02 | 82 | 1013.4 |
| 20260503055031 | 59 | 0 | 0.0 | 0.0 | 0.00 | 0.02 | 0.02 | 83 | 1013.4 |
| 20260503054822 | 59 | 0 | 0.0 | 0.0 | 0.00 | 0.02 | 0.02 | 81 | 1013.4 |
| 20260503054031 | 59 | 0 | 0.0 | 0.0 | 0.00 | 0.02 | 0.02 | 81 | 1013.4 |
| 20260503053820 | 59 | 0 | 0.0 | 0.0 | 0.00 | 0.02 | 0.02 | 79 | 1013.4 |
| 20260503053032 | 60 | 0 | 0.0 | 0.0 | 0.00 | 0.02 | 0.02 | 78 | 1013.5 |
| 20260503052531 | 60 | 0 | 0.0 | 0.0 | 0.00 | 0.02 | 0.02 | 77 | 1013.5 |
| 20260503052031 | 60 | 0 | 0.0 | 0.0 | 0.00 | 0.02 | 0.02 | 77 | 1013.5 |
| 20260503051534 | 60 | 0 | 0.0 | 0.0 | 0.00 | 0.02 | 0.02 | 76 | 1013.4 |
| 20260503051031 | 61 | 0 | 0.0 | 0.0 | 0.00 | 0.02 | 0.02 | 73 | 1013.4 |
| 20260503050531 | 61 | 0 | 0.0 | 0.0 | 0.00 | 0.02 | 0.02 | 74 | 1013.4 |
| 20260503050032 | 61 | 0 | 0.0 | 0.0 | 0.00 | 0.02 | 0.02 | 76 | 1013.4 |
| 20260503045530 | 61 | 0 | 0.0 | 0.0 | 0.00 | 0.02 | 0.02 | 75 | 1013.4 |
| 20260503045027 | 61 | 0 | 0.0 | 0.0 | 0.00 | 0.02 | 0.02 | 75 | 1013.4 |
| 20260503044531 | 61 | 0 | 0.0 | 0.0 | 0.00 | 0.02 | 0.02 | 76 | 1013.3 |
| 20260503044316 | 62 | 0 | 0.0 | 0.0 | 0.00 | 0.02 | 0.02 | 76 | 1013.2 |
| 20260503043527 | 62 | 0 | 0.0 | 0.0 | 0.00 | 0.02 | 0.02 | 74 | 1013.2 |
| 20260503043319 | 62 | 0 | 0.0 | 0.0 | 0.00 | 0.02 | 0.02 | 73 | 1013.2 |
| 20260503042528 | 62 | 0 | 0.0 | 0.0 | 0.00 | 0.02 | 0.02 | 72 | 1013.0 |
| 20260503042031 | 62 | 0 | 0.0 | 0.0 | 0.00 | 0.02 | 0.02 | 74 | 1013.0 |
| 20260503041544 | 63 | 0 | 0.0 | 0.0 | 0.00 | 0.02 | 0.02 | 74 | 1013.0 |
| 20260503041149 | 63 | 0 | 0.0 | 0.0 | 0.00 | 0.02 | 0.02 | 73 | 1012.9 |
| 20260503040650 | 64 | 0 | 0.0 | 0.0 | 0.00 | 0.02 | 0.02 | 72 | 1012.9 |
| 20260503040149 | 64 | 0 | 0.0 | 2.0 | 0.00 | 0.02 | 0.02 | 72 | 1012.9 |
| 20260503035648 | 64 | 0 | 0.0 | 2.0 | 0.00 | 0.02 | 0.02 | 69 | 1012.8 |
| 20260503035148 | 65 | 0 | 0.0 | 0.0 | 0.00 | 0.02 | 0.02 | 69 | 1012.7 |
| 20260503034938 | 65 | 0 | 0.0 | 0.0 | 0.00 | 0.02 | 0.02 | 67 | 1012.7 |
| 20260503034149 | 65 | 0 | 0.0 | 0.0 | 0.00 | 0.02 | 0.02 | 66 | 1012.6 |
| 20260503033648 | 66 | 0 | 0.0 | 0.0 | 0.00 | 0.02 | 0.02 | 65 | 1012.5 |
| 20260503033148 | 66 | 0 | 0.0 | 0.0 | 0.00 | 0.02 | 0.02 | 64 | 1012.4 |
| 20260503032648 | 67 | 0 | 0.0 | 0.0 | 0.00 | 0.02 | 0.02 | 63 | 1012.3 |
| 20260503032149 | 67 | 0 | 0.0 | 0.0 | 0.00 | 0.02 | 0.02 | 62 | 1012.3 |
| 20260503031648 | 67 | 0 | 0.0 | 0.0 | 0.00 | 0.02 | 0.02 | 62 | 1012.3 |
| 20260503031148 | 67 | 0 | 0.0 | 0.0 | 0.00 | 0.02 | 0.02 | 63 | 1012.2 |
| 20260503030649 | 68 | 0 | 0.0 | 0.0 | 0.00 | 0.02 | 0.02 | 64 | 1012.2 |
| 20260503030149 | 69 | 0 | 0.0 | 4.0 | 0.00 | 0.02 | 0.02 | 63 | 1012.1 |
| 20260503025645 | 69 | 0 | 0.0 | 4.0 | 0.00 | 0.02 | 0.02 | 61 | 1012.1 |
| 20260503025145 | 70 | 0 | 0.0 | 0.0 | 0.00 | 0.02 | 0.02 | 61 | 1012.0 |
| 20260503024644 | 70 | 0 | 0.0 | 0.0 | 0.00 | 0.03 | 0.02 | 60 | 1012.0 |
| 20260503024145 | 71 | 0 | 0.0 | 0.0 | 0.00 | 0.04 | 0.02 | 59 | 1012.0 |
| 20260503023645 | 71 | 0 | 0.0 | 0.0 | 0.00 | 0.04 | 0.02 | 56 | 1011.9 |
| 20260503023145 | 72 | 0 | 0.0 | 3.0 | 0.00 | 0.04 | 0.02 | 57 | 1011.9 |
| 20260503022645 | 72 | 0 | 1.0 | 4.0 | 0.00 | 0.04 | 0.02 | 56 | 1011.8 |
| 20260503022437 | 73 | 318 | 1.0 | 4.0 | 0.00 | 0.04 | 0.02 | 54 | 1011.9 |
| 20260503021644 | 73 | 0 | 0.0 | 4.0 | 0.00 | 0.04 | 0.02 | 53 | 1011.8 |
| 20260503021145 | 74 | 0 | 1.0 | 4.0 | 0.00 | 0.04 | 0.02 | 53 | 1011.8 |
| 20260503020644 | 74 | 322 | 1.0 | 4.0 | 0.00 | 0.04 | 0.02 | 53 | 1011.8 |
| 20260503020141 | 74 | 0 | 1.0 | 4.0 | 0.00 | 0.04 | 0.02 | 53 | 1011.8 |
| 20260503015641 | 74 | 0 | 0.0 | 3.0 | 0.00 | 0.04 | 0.02 | 53 | 1011.8 |
| 20260503015435 | 74 | 0 | 1.0 | 4.0 | 0.00 | 0.04 | 0.02 | 53 | 1011.8 |
| 20260503014642 | 74 | 318 | 1.0 | 4.0 | 0.00 | 0.05 | 0.02 | 53 | 1011.7 |
| 20260503014430 | 75 | 0 | 0.0 | 3.0 | 0.00 | 0.05 | 0.02 | 54 | 1011.7 |
| 20260503013642 | 75 | 0 | 1.0 | 4.0 | 0.00 | 0.05 | 0.02 | 54 | 1011.7 |
| 20260503013142 | 75 | 0 | 1.0 | 4.0 | 0.00 | 0.05 | 0.02 | 54 | 1011.8 |
| 20260503012641 | 75 | 0 | 1.0 | 4.0 | 0.00 | 0.05 | 0.02 | 53 | 1011.8 |
| 20260503012138 | 75 | 321 | 0.0 | 4.0 | 0.00 | 0.05 | 0.02 | 53 | 1011.8 |
| 20260503011636 | 75 | 334 | 1.0 | 4.0 | 0.00 | 0.05 | 0.02 | 53 | 1011.8 |
| 20260503011425 | 75 | 0 | 1.0 | 4.0 | 0.00 | 0.05 | 0.02 | 53 | 1011.8 |
| 20260503010633 | 76 | 313 | 1.0 | 4.0 | 0.00 | 0.05 | 0.02 | 53 | 1011.7 |
| 20260503010131 | 76 | 0 | 1.0 | 4.0 | 0.00 | 0.05 | 0.02 | 52 | 1011.8 |
| 20260503005632 | 76 | 319 | 2.0 | 5.0 | 0.00 | 0.05 | 0.02 | 52 | 1011.8 |
| 20260503005132 | 76 | 0 | 2.0 | 6.0 | 0.00 | 0.05 | 0.02 | 52 | 1011.8 |
| 20260503004921 | 76 | 0 | 1.0 | 6.0 | 0.00 | 0.05 | 0.02 | 52 | 1011.8 |
| 20260503004132 | 76 | 329 | 1.0 | 5.0 | 0.00 | 0.05 | 0.02 | 51 | 1011.9 |
| 20260503003637 | 76 | 333 | 0.0 | 4.0 | 0.00 | 0.05 | 0.02 | 51 | 1011.9 |
| 20260503003134 | 76 | 337 | 1.0 | 4.0 | 0.00 | 0.05 | 0.02 | 51 | 1011.9 |
| 20260503002633 | 76 | 321 | 2.0 | 4.0 | 0.00 | 0.05 | 0.02 | 51 | 1011.9 |
| 20260503002134 | 76 | 340 | 2.0 | 4.0 | 0.00 | 0.05 | 0.02 | 50 | 1011.9 |
| 20260503001918 | 76 | 346 | 2.0 | 4.0 | 0.00 | 0.05 | 0.02 | 49 | 1011.9 |
| 20260503001131 | 77 | 346 | 1.0 | 5.0 | 0.00 | 0.05 | 0.02 | 50 | 1012.0 |
| 20260503000917 | 77 | 104 | 1.0 | 6.0 | 0.00 | 0.05 | 0.02 | 51 | 1012.0 |
| 20260503000131 | 77 | 323 | 1.0 | 6.0 | 0.00 | 0.05 | 0.02 | 49 | 1012.0 |
| 20260502235631 | 76 | 0 | 1.0 | 6.0 | 0.00 | 0.05 | 0.02 | 50 | 1012.1 |
| 20260502235131 | 76 | 160 | 2.0 | 6.0 | 0.00 | 0.05 | 0.02 | 53 | 1012.1 |
| 20260502234631 | 76 | 339 | 2.0 | 6.0 | 0.00 | 0.05 | 0.02 | 51 | 1012.1 |
| 20260502234131 | 76 | 342 | 2.0 | 6.0 | 0.00 | 0.05 | 0.02 | 52 | 1012.2 |
| 20260502233631 | 76 | 0 | 1.0 | 6.0 | 0.00 | 0.05 | 0.02 | 52 | 1012.2 |
| 20260502233131 | 76 | 335 | 1.0 | 5.0 | 0.00 | 0.05 | 0.02 | 52 | 1012.3 |
| 20260502232631 | 76 | 0 | 2.0 | 6.0 | 0.00 | 0.05 | 0.02 | 52 | 1012.4 |
| 20260502232420 | 76 | 314 | 2.0 | 6.0 | 0.00 | 0.05 | 0.02 | 52 | 1012.5 |
| 20260502231632 | 76 | 331 | 2.0 | 5.0 | 0.00 | 0.05 | 0.02 | 53 | 1012.6 |
| 20260502231132 | 75 | 0 | 2.0 | 5.0 | 0.00 | 0.05 | 0.02 | 54 | 1012.6 |
| 20260502230629 | 75 | 0 | 1.0 | 4.0 | 0.00 | 0.05 | 0.02 | 54 | 1012.6 |
| 20260502230129 | 75 | 322 | 1.0 | 4.0 | 0.00 | 0.05 | 0.02 | 54 | 1012.7 |
| 20260502225703 | 74 | 296 | 2.0 | 6.0 | 0.00 | 0.05 | 0.02 | 55 | 1012.8 |
| 20260502224630 | 74 | 0 | 2.0 | 5.0 | 0.02 | 0.05 | 0.02 | 56 | 1013.0 |
| 20260502224130 | 74 | 339 | 2.0 | 4.0 | 0.02 | 0.05 | 0.02 | 55 | 1013.0 |
| 20260502223917 | 74 | 0 | 1.0 | 5.0 | 0.02 | 0.05 | 0.02 | 56 | 1013.2 |
| 20260502223129 | 74 | 339 | 2.0 | 5.0 | 0.02 | 0.05 | 0.02 | 56 | 1013.2 |
| 20260502222632 | 73 | 0 | 2.0 | 5.0 | 0.02 | 0.05 | 0.02 | 57 | 1013.3 |
| 20260502222435 | 73 | 327 | 2.0 | 6.0 | 0.02 | 0.05 | 0.02 | 57 | 1013.4 |
| 20260502221629 | 73 | 340 | 1.0 | 6.0 | 0.02 | 0.05 | 0.02 | 58 | 1013.4 |
| 20260502221126 | 73 | 0 | 1.0 | 4.0 | 0.02 | 0.05 | 0.02 | 59 | 1013.5 |
| 20260502220626 | 73 | 311 | 1.0 | 4.0 | 0.02 | 0.05 | 0.02 | 58 | 1013.5 |
| 20260502220126 | 73 | 209 | 1.0 | 6.0 | 0.02 | 0.05 | 0.02 | 57 | 1013.5 |
| 20260502215626 | 73 | 337 | 1.0 | 6.0 | 0.02 | 0.05 | 0.02 | 59 | 1013.6 |
| 20260502215126 | 73 | 0 | 2.0 | 6.0 | 0.00 | 0.03 | 0.00 | 58 | 1013.6 |
| 20260502214626 | 73 | 355 | 2.0 | 6.0 | 0.00 | 0.03 | 0.00 | 56 | 1013.6 |
| 20260502214126 | 73 | 0 | 2.0 | 6.0 | 0.00 | 0.03 | 0.00 | 58 | 1013.6 |
| 20260502213627 | 73 | 0 | 2.0 | 5.0 | 0.00 | 0.03 | 0.00 | 57 | 1013.7 |
| 20260502213126 | 72 | 0 | 2.0 | 5.0 | 0.00 | 0.03 | 0.00 | 58 | 1013.7 |
| 20260502212624 | 72 | 345 | 2.0 | 5.0 | 0.00 | 0.03 | 0.00 | 59 | 1013.8 |
| 20260502212125 | 73 | 305 | 2.0 | 5.0 | 0.00 | 0.03 | 0.00 | 58 | 1013.8 |
| 20260502211622 | 73 | 313 | 2.0 | 5.0 | 0.00 | 0.03 | 0.00 | 59 | 1013.9 |
| 20260502211410 | 72 | 332 | 1.0 | 4.0 | 0.00 | 0.03 | 0.00 | 59 | 1014.0 |
| 20260502210621 | 72 | 308 | 1.0 | 5.0 | 0.00 | 0.03 | 0.00 | 58 | 1014.0 |
| 20260502210120 | 72 | 328 | 2.0 | 6.0 | 0.00 | 0.03 | 0.00 | 58 | 1014.0 |
| 20260502205621 | 72 | 308 | 2.0 | 6.0 | 0.00 | 0.03 | 0.00 | 58 | 1014.0 |
| 20260502205120 | 72 | 0 | 1.0 | 5.0 | 0.00 | 0.03 | 0.00 | 57 | 1014.0 |
| 20260502204620 | 71 | 217 | 1.0 | 6.0 | 0.00 | 0.03 | 0.00 | 58 | 1014.0 |
| 20260502204410 | 71 | 300 | 2.0 | 6.0 | 0.00 | 0.03 | 0.00 | 59 | 1014.1 |
| 20260502203620 | 71 | 4 | 2.0 | 6.0 | 0.00 | 0.03 | 0.00 | 59 | 1014.1 |
| 20260502203119 | 70 | 313 | 2.0 | 6.0 | 0.00 | 0.03 | 0.00 | 60 | 1014.2 |
| 20260502202907 | 70 | 334 | 2.0 | 6.0 | 0.00 | 0.03 | 0.00 | 60 | 1014.3 |
| 20260502202117 | 70 | 329 | 1.0 | 5.0 | 0.00 | 0.03 | 0.00 | 61 | 1014.4 |
| 20260502201651 | 69 | 344 | 2.0 | 5.0 | 0.00 | 0.03 | 0.00 | 61 | 1014.4 |
| 20260502200906 | 69 | 335 | 1.0 | 4.0 | 0.00 | 0.03 | 0.00 | 62 | 1014.5 |
| 20260502200118 | 68 | 0 | 2.0 | 4.0 | 0.00 | 0.03 | 0.00 | 62 | 1014.6 |
| 20260502195618 | 68 | 345 | 2.0 | 4.0 | 0.00 | 0.03 | 0.00 | 63 | 1014.6 |
| 20260502195118 | 68 | 337 | 1.0 | 5.0 | 0.00 | 0.03 | 0.00 | 63 | 1014.7 |